Regional Weather Roundup
Issued by NWS Columbia, SC

Home | Current Version | Previous Version | Text Only | Print | Product List | Glossary On
Versions: 1 2 3 4 5 6 7 8 9 10 11 12 13 14 15 16 17 18 19 20 21 22 23 24 25 26 27 28
000
ASUS42 KCAE 282110
RWRCAE
REGIONAL WEATHER ROUNDUP
NATIONAL WEATHER SERVICE COLUMBIA SC
500 PM EDT TUE MAR 28 2017

NOTE: "FAIR" INDICATES FEW OR NO CLOUDS BELOW 12,000 FEET WITH NO
SIGNIFICANT WEATHER AND/OR OBSTRUCTIONS TO VISIBILITY.

NOT ALL STATIONS ARE QUALITY CONTROLLED BY THE NATIONAL
WEATHER SERVICE. USE DATA WITH CAUTION...ESPECIALLY
DEWPOINT OBSERVATIONS.

SCZ001>056-GAZ040-063>065-077-282200-
...UPSTATE SOUTH CAROLINA...

CITY           SKY/WX    TMP DP  RH WIND       PRES   REMARKS
ANDERSON       SUNNY     79  56  45 W15       29.90F
LIBERTY        CLEAR     81  47  29 W15G25    29.89F
SPARTANBURG    MOSUNNY   79  48  34 NW6       29.87F
CLEMSON        PTSUNNY   81  53  37 W9        29.91F
GREENVILLE     MOSUNNY   83  47  28 W15G23    29.89F
GREENWOOD      MOSUNNY   80  50  34 W15G24    29.91S
GREER          SUNNY     83  49  30 W18G25    29.87F
ROCK HILL      MOSUNNY   78  53  41 NW7       29.88F
CHESTER        MOCLDY    79  46  31 W5        29.89S
LAURENS        MOCLDY    77  55  47 W13       29.89F


...CENTRAL SOUTH CAROLINA...

CITY           SKY/WX    TMP DP  RH WIND       PRES   REMARKS
COLUMBIA APT   MOSUNNY   81  58  45 W9        29.88F
COLUMBIA OWENS PTSUNNY   82  57  42 W8        29.89F
MCENTIRE ANGB  MOSUNNY   82  58  43 SW14      29.88F
ORANGEBURG     MOSUNNY   83  57  41 W15       29.89F
SUMTER SHAW    MOSUNNY   81  56  42 W10       29.85F
NEWBERRY       PTCLDY    81  55  41 W12G20    29.91F
AIKEN          FAIR      79  57  47 SW8       29.94F
BARNWELL       FAIR      84  61  45 W12G18    29.90F
MANNING        FAIR      81  54  39 W13G21    29.88F
CAMDEN         FAIR      82  55  39 W10G18    29.87F
LANCASTER      PTCLDY    81  50  34 SW15G21   29.87F
WINNSBORO      CLEAR     81  54  39 SW13      29.88F


...EASTERN AND COASTAL SOUTH CAROLINA...

CITY           SKY/WX    TMP DP  RH WIND       PRES   REMARKS
MYRTLE BEACH   MOSUNNY   72  61  68 S17       29.88F
N MYRTLE BCH   PTSUNNY   69  61  75 SW16      29.87F
CONWAY         FAIR      81  57  44 SW8G18    29.86F
MARION         FAIR      79  55  44 W8        29.86F
HARTSVILLE     MOCLDY    82  54  36 W10       29.85F
FLORENCE       MOSUNNY   85  56  37 W10G22    29.85F
DARLINGTON     MOSUNNY   83  57  41 W13       29.86F
CHARLESTON APT PTSUNNY   80  60  50 SW17      29.89F
MOUNT PLEASANT FAIR      79  63  57 S15       29.90F
WALTERBORO     CLOUDY    81  59  47 W9        29.90S
BEAUFORT       PTSUNNY   85  59  41 W13       29.90F


...EASTERN GEORGIA...

CITY           SKY/WX    TMP DP  RH WIND       PRES   REMARKS
AUGUSTA BUSH F MOSUNNY   85  59  41 W13       29.89F
AUGUSTA DANIEL MOSUNNY   82  57  42 VRB5      29.91F
THOMSON        CLOUDY    80  58  47 NW5       29.96F
WASHINGTON     FAIR      82  59  44 NW9       29.91F
CLAXTON        MOCLDY    81  61  51 SW8       29.93S
SYLVANIA       PTCLDY   N/A N/A N/A W8        29.92S
STATESBORO     CLOUDY    84  62  48 W13G20    29.92S
SAVANNAH       MOSUNNY   86  54  33 SW16G22   29.91F


...SOUTHERN NORTH CAROLINA...

CITY           SKY/WX    TMP DP  RH WIND       PRES   REMARKS
CHARLOTTE      PTSUNNY   77  52  41 N12G17    29.89S
MONROE         PTSUNNY   78  50  37 NW7       29.87F
WADESBORO      PTCLDY    81  51  35 NW12      29.86S
ROCKINGHAM     CLEAR     80  57  46 N8        29.86S
RUTHERFORDTON  SUNNY     79  51  37 NW12      29.91F
ASHEVILLE      SUNNY     72  47  40 N12       29.95F

$$




USA.gov is the U.S. government's official web portal to all federal, state and local government web resources and services.